Regional Weather Roundup
Issued by NWS

Home | Current Version | Previous Version | Graphics & Text | Print | Product List | Glossary On
Versions: 1 2 3 4 5 6 7 8 9 10 11 12 13 14 15 16 17 18 19 20 21 22 23 24 25 26 27 28 29 30 31 32 33 34 35 36 37 38 39 40 41 42 43 44 45 46 47 48 49 50
000
ASUS45 KCYS 280610
RWRWY

WYOMING REGIONAL WEATHER ROUNDUP
NATIONAL WEATHER SERVICE CHEYENNE WY
1200 AM MDT FRI AUG 28 2015

NOTE:  "FAIR" INDICATES FEW OR NO CLOUDS BELOW 12,000 FEET
WITH NO SIGNIFICANT WEATHER AND/OR OBSTRUCTIONS TO VISIBILITY.

WYZ001-280700-
YELLOWSTONE NATIONAL PARK

CITY           SKY/WX    TMP DP  RH WIND       PRES   REMARKS
LK YELLOWSTONE   N/A     42  41  96 NW3       30.43F
6HR MIN TEMP:  42; 6HR MAX TEMP:  52;

W YELLOWSTONE  NOT AVBL

$$
WYZ002>013-054>058-071-098>099-280700-
NORTHERN WYOMING

CITY           SKY/WX    TMP DP  RH WIND       PRES   REMARKS
JACKSON        FAIR      54  46  76 N10       30.33R
CODY           FAIR      64  43  45 W5        30.18S
GREYBULL       FAIR      66  50  56 SE8       30.15F
6HR MIN TEMP:  66; 6HR MAX TEMP:  74;

WORLAND        FAIR      60  55  83 SE5       30.18R HAZE
6HR MIN TEMP:  59; 6HR MAX TEMP:  72; 6HR PCP:  0.11;

SHERIDAN       FAIR      73  41  31 SW14      30.07F
6HR MIN TEMP:  68; 6HR MAX TEMP:  83;

BUFFALO        FAIR      71  41  33 W12       30.15F
6HR MIN TEMP:  64; 6HR MAX TEMP:  81;

GILLETTE       FAIR      63  46  54 CALM      30.09S
6HR MIN TEMP:  63; 6HR MAX TEMP:  81;

HULETT         FAIR      59  52  77 S9        30.07S
NEWCASTLE      FAIR      63  50  63 CALM      30.08S

$$
WYZ014>020-022>026-101>103-280700-
CENTRAL WYOMING

CITY           SKY/WX    TMP DP  RH WIND       PRES   REMARKS
BIG PINEY      FAIR      47  39  74 W3        30.37S
6HR MIN TEMP:  47; 6HR MAX TEMP:  70;

PINEDALE       FAIR      50  46  87 NW7       30.38R
DUBOIS         FAIR      46  45  93 NW6       30.38F
LANDER         FAIR      58  48  69 VRB6      30.26F
6HR MIN TEMP:  56; 6HR MAX TEMP:  78; 6HR PCP:  0.08;

RIVERTON       FAIR      57  51  80 SW13      30.26F
6HR MIN TEMP:  57; 6HR MAX TEMP:  77; 6HR PCP:  0.03;

CASPER         CLOUDY    65  43  44 NW12      30.23R
6HR MIN TEMP:  64; 6HR MAX TEMP:  77; 6HR PCP: TRACE;

DOUGLAS        MOCLDY    67  49  52 W14       30.17R
6HR MIN TEMP:  66; 6HR MAX TEMP:  78;


$$
WYZ021-027>030-104>119-280700-
SOUTHERN WYOMING

CITY           SKY/WX    TMP DP  RH WIND       PRES   REMARKS
EVANSTON       FAIR      58  38  47 S7        30.38S
6HR MIN TEMP:  58; 6HR MAX TEMP:  75;

KEMMERER       FAIR      50  37  62 NW14      30.40S
FORT BRIDGER   CLEAR     63  34  34 W7        30.40S
ROCK SPRINGS   FAIR      56  44  64 E12       30.38R
6HR MIN TEMP:  56; 6HR MAX TEMP:  70; 6HR PCP: TRACE;

DIXON          MOCLDY    53  45  73 CALM      30.38R
RAWLINS        FAIR      58  44  60 NW23G36   30.34F
6HR MIN TEMP:  56; 6HR MAX TEMP:  72;

SARATOGA       MOCLDY    59  50  72 NW8       30.36R
LARAMIE        FAIR      55  50  83 NW15      30.32S
6HR MIN TEMP:  53; 6HR MAX TEMP:  70; 6HR PCP:  0.05;

CHEYENNE       FAIR      62  49  62 NW3       30.23R
6HR MIN TEMP:  59; 6HR MAX TEMP:  73;

TORRINGTON     FAIR      67  56  67 CALM      30.08S
6HR MIN TEMP:  65; 6HR MAX TEMP:  80; 6HR PCP: TRACE;

PINE BLUFFS    MOCLDY    59  50  72 CALM      30.16F

$$


USA.gov is the U.S. government's official web portal to all federal, state and local government web resources and services.